Belize City, Belize

7:26 PM CST on February 09, 2016 (GMT -0600)
Slaughter House Rd, Bze City | | Change Station
CLOSE
Current Station
Personal Weather Station
Location: Belize City,
Elevation: 10 ft
Nearby Weather Stations

Elev 10 ft 17.49 °N, 88.19 °W | Updated 9 seconds ago

Mostly Cloudy
Mostly Cloudy
72.9 °F
Feels Like 76 °F
N
2.1
Wind Variable Wind from South
Gusts 3.0 mph

Today
High -- | Low -- °F
--% Chance of Precip.
Yesterday
High -- | Low -- °F
Precip. -- in
Pressure 30.21 in
Visibility 6.2 miles
Clouds Few 2300 ft
Mostly Cloudy 4000 ft
Heat Index 76 °F
Dew Point 59 °F
Humidity 62%
Rainfall 0.00 in
Snow Depth Not available.
6:22 AM 5:51 PM
Waxing Crescent, 3% visible
METAR MZBZ 100100Z 00000KT 9999 FEW023 BKN040 21/18 A3021 Q1023 NOSIG
Pressure 30.21 in
Visibility 6.2 miles
Clouds Few 2300 ft
Mostly Cloudy 4000 ft
Heat Index 76 °F
Dew Point 59 °F
Humidity 62%
Rainfall 0.00 in
Snow Depth Not available.
6:22 AM 5:51 PM
Waxing Crescent, 3% visible
METAR MZBZ 100100Z 00000KT 9999 FEW023 BKN040 21/18 A3021 Q1023 NOSIG

10-Day Weather Forecast

No radar image for this location.
×

Almanac

Astronomy

Feb. 09, 2016 Rise Set
Actual Time
Civil Twilight
Nautical Twilight
Astronomical Twilight
Moon
Length of Visible Light
Length of Day
Tomorrow will be .
, % of the Moon is Illuminated

Today's Extremes

Country Highs Country Lows

Community

WunderPhotos

Upload Photos

1,891,758 photos uploaded!

WunderBlog® & News

Nearby

Air Quality

  Air Quality AQ Index Pollutant
Not available.

Snow Depth

Station Depth Elevation

Earthquake Activity

City Distance Mag. Time & Date
Minimum magnitude displayed is 2.5.

Coastal Water Temperatures

Place Temperature

Stations

Nearby Weather Stations

Station Location Temp. Windchill Dew Point Humidity Wind Precip. Elev Updated Type